Wind_Speed
83 84 84 84 84 85 86 87 87 88 89 90 91 92 93 94 94 95 96 96 97 97 98 98 99 99 100 101 102 103 104 105 106 107 108 109 110 111 112 113 113 114 115 115 116 116 116 117 117 117 117 118 118 117 117 117 117 116 116 116 115 115 114 114 113 112 111 111 110 110 110 110 110 111 111 112 113 114 116 117 119 120 122 123 124 125
84 84 84 84 85 85 86 87 88 88 89 90 91 92 93 94 95 95 96 96 97 97 98 99 99 100 100 101 103 104 105 106 107 108 109 110 111 112 113 113 114 115 115 116 116 116 117 117 117 118 118 118 118 118 117 117 117 117 116 116 116 115 115 114 113 113 112 111 111 110 110 110 110 111 111 112 113 114 116 117 119 120 121 122 123 124
84 84 84 85 85 86 87 87 88 89 90 91 92 93 93 94 95 96 96 97 97 98 98 99 100 100 101 102 103 104 105 106 107 108 109 111 111 112 113 114 115 115 115 116 116 116 117 117 117 117 117 117 117 117 117 117 116 116 116 116 115 115 114 114 113 113 112 111 111 110 110 110 110 111 111 112 113 114 115 116 118 119 120 121 122 123
84 84 84 85 86 86 87 88 89 90 91 92 93 94 94 95 96 96 97 97 98 99 99 100 100 101 102 103 104 105 106 107 108 109 110 111 112 113 113 114 114 115 115 115 116 116 116 116 116 116 116 116 116 116 116 116 116 116 115 115 115 114 114 113 113 112 111 111 110 110 110 110 110 110 110 111 112 113 114 115 116 118 119 120 121 122
84 84 85 85 86 87 88 89 90 91 92 93 94 94 95 96 97 97 98 98 99 99 100 100 101 101 102 103 104 105 106 107 108 109 110 111 112 113 113 114 114 114 114 114 115 115 115 115 115 115 115 115 115 115 115 115 115 115 115 115 114 114 113 113 112 111 111 110 110 109 109 109 109 109 109 110 110 111 112 113 114 116 117 118 119 120
84 85 85 86 87 88 89 90 91 92 93 94 95 96 96 97 98 98 99 99 100 100 101 101 101 102 103 104 105 106 106 107 108 109 110 111 112 112 113 113 113 113 113 114 114 114 114 114 114 114 114 115 115 115 115 115 115 115 115 115 114 113 113 112 111 111 110 110 110 109 109 109 109 109 109 109 109 109 110 111 112 113 115 116 117 118
85 85 86 86 87 88 90 91 92 93 94 95 96 97 97 98 99 99 100 100 100 101 101 102 102 103 103 104 105 106 106 107 108 109 109 110 111 111 112 112 112 112 112 112 113 113 113 113 113 114 114 115 115 115 116 116 116 116 115 115 114 113 112 111 111 110 110 110 109 109 109 109 109 108 108 108 108 108 108 109 110 111 112 113 114 115
85 86 87 87 88 90 91 92 93 94 95 96 97 98 99 99 100 100 101 101 101 102 102 102 103 103 104 104 105 106 106 107 107 108 108 109 109 110 110 110 110 111 111 111 112 112 112 113 113 114 114 115 115 116 116 116 116 116 115 114 113 113 112 111 110 110 109 109 109 109 109 109 108 107 107 107 106 106 106 107 107 108 109 110 112 113
87 87 88 89 90 91 92 93 94 96 97 97 98 99 100 101 101 101 102 102 102 102 103 103 103 104 104 104 105 105 105 106 106 106 107 107 108 108 108 108 109 109 109 110 110 111 111 112 113 113 114 114 115 115 116 116 116 115 114 113 112 111 111 110 109 109 109 108 108 108 108 107 107 106 106 105 105 105 105 105 105 106 107 108 109 111
88 88 89 90 91 92 93 94 96 97 98 99 100 101 101 102 102 102 103 103 103 103 103 103 104 104 104 104 104 105 105 105 105 105 105 105 106 106 106 107 107 108 108 109 109 110 111 111 112 113 113 114 114 115 115 115 114 114 113 112 111 110 109 108 108 107 107 107 106 106 106 106 105 105 104 104 104 104 104 104 104 104 105 106 107 109
90 90 91 92 93 94 95 96 97 99 99 100 101 102 102 103 103 103 103 103 103 103 103 103 104 104 104 104 104 104 103 103 103 103 103 104 104 105 105 106 106 106 107 108 108 109 110 110 111 112 112 113 113 113 113 113 113 112 111 110 108 107 107 106 106 105 105 105 104 104 104 103 103 103 103 103 103 102 102 102 102 102 103 104 105 107
91 92 92 93 94 95 97 98 99 100 101 102 103 103 104 104 104 103 103 104 103 103 103 103 103 103 104 104 104 103 102 102 102 102 102 103 103 104 105 105 105 105 106 106 107 108 108 109 110 110 111 111 111 111 111 111 110 109 108 107 106 105 104 103 103 103 102 102 102 101 101 101 101 101 101 101 100 100 100 100 100 100 101 102 103 105
93 93 94 95 96 97 98 99 100 101 102 103 104 104 105 105 104 104 104 104 104 103 103 103 103 103 103 103 103 103 102 101 101 101 101 102 103 103 104 104 104 104 104 105 106 106 107 107 108 108 108 109 109 109 108 108 107 106 105 103 102 101 101 100 100 100 100 99 99 99 98 98 98 98 98 98 98 97 97 97 98 98 99 100 101 102
94 95 95 96 97 99 100 101 102 103 104 104 105 105 106 105 105 105 104 104 104 103 103 103 103 103 103 103 102 102 101 100 100 99 100 101 102 102 103 103 103 103 103 103 104 104 105 105 105 106 106 106 106 106 105 105 103 102 101 100 99 98 98 97 97 97 97 96 96 96 96 96 95 95 95 95 95 95 95 95 95 96 97 98 99 100
96 96 97 98 99 100 102 103 104 105 105 106 106 106 106 106 105 105 104 104 104 103 102 102 102 102 101 101 101 101 100 99 99 98 99 100 101 101 101 101 101 101 101 101 102 102 102 102 103 103 103 103 103 103 102 101 100 99 97 96 96 95 95 94 94 94 94 94 93 93 93 93 93 92 92 92 92 92 92 93 93 94 95 96 97 98
97 98 99 100 101 102 103 104 105 106 107 107 107 107 107 106 106 105 105 104 104 103 102 101 101 100 100 100 100 100 99 99 98 97 97 98 99 100 100 100 99 99 99 99 99 100 100 100 100 100 100 100 100 99 99 98 97 96 95 94 93 92 92 92 92 92 91 91 91 91 90 90 90 90 90 90 90 90 90 90 91 92 92 93 94 95
98 99 101 102 103 104 105 106 107 107 108 108 108 107 107 106 106 105 104 104 103 102 101 100 99 99 99 99 99 99 98 98 97 97 96 97 98 98 98 98 97 97 97 97 97 97 97 97 97 97 97 97 97 97 96 95 94 93 92 91 91 90 90 90 90 89 89 89 89 88 88 88 88 88 88 88 88 88 88 88 89 89 90 90 91 92
100 101 102 103 104 106 106 107 108 108 109 108 108 107 107 106 105 104 103 102 101 100 99 98 98 97 97 98 98 98 97 97 97 96 95 95 96 96 96 96 95 95 95 95 95 95 95 95 95 95 95 95 95 94 94 93 92 91 90 90 89 89 88 88 88 87 87 87 87 87 87 87 87 87 87 87 86 86 86 86 86 86 87 87 87 88
101 102 103 105 106 107 107 108 109 109 109 109 108 107 106 105 104 103 102 100 99 98 98 97 96 96 96 96 97 97 96 96 96 95 94 93 94 94 95 94 94 93 92 93 93 93 93 93 93 93 93 93 93 92 92 91 90 90 89 88 87 87 87 86 86 86 86 86 86 86 85 85 85 85 85 85 84 84 83 83 83 83 83 84 84 84
102 103 105 106 107 107 108 109 109 109 109 108 107 106 105 104 102 101 100 98 97 96 96 96 96 96 95 95 96 96 96 95 94 93 92 91 92 92 93 92 92 91 91 91 91 91 91 91 91 91 91 91 91 90 90 89 89 88 87 87 86 85 85 85 84 84 84 84 84 84 84 84 84 83 83 82 81 81 80 80 80 80 80 80 80 81
104 105 106 106 107 108 108 109 109 109 108 108 107 105 104 102 100 99 97 96 95 95 95 95 95 95 95 95 96 96 95 94 93 92 90 90 90 90 91 90 90 89 89 89 90 90 89 89 89 89 89 89 89 88 88 88 87 86 86 85 84 84 83 83 83 83 83 83 83 83 83 82 82 81 80 79 78 78 77 77 77 77 77 77 77 77
105 106 106 107 107 108 108 109 109 108 108 107 106 104 102 100 99 97 95 94 94 94 94 94 94 94 95 95 95 95 94 93 92 91 89 88 88 88 88 88 88 87 87 88 88 87 87 87 87 87 87 87 87 87 86 86 85 84 84 83 83 82 82 82 82 82 82 82 82 81 80 80 79 78 77 76 75 75 74 74 74 74 74 74 74 74
106 106 107 107 108 108 108 108 108 107 106 105 104 103 101 99 97 96 95 94 94 94 93 93 93 93 94 94 94 94 93 92 91 89 88 87 86 86 86 86 86 86 86 86 86 85 85 85 85 85 85 85 85 85 84 84 83 83 83 82 82 81 81 81 81 81 80 80 79 79 78 77 76 75 74 73 72 72 72 71 71 71 71 71 72 72
106 107 107 107 108 108 108 107 107 106 105 104 103 101 99 97 96 94 93 93 93 93 92 92 92 92 93 93 93 93 92 91 90 88 86 85 84 83 84 84 84 84 84 84 84 83 83 83 83 83 83 83 83 83 83 82 82 82 81 81 81 80 80 80 79 78 78 77 76 76 75 74 73 72 72 71 70 69 69 69 69 69 69 69 70 70
107 107 107 107 107 107 107 106 106 105 104 103 101 100 98 96 94 93 92 92 92 91 91 90 91 91 91 91 91 91 90 89 88 87 85 83 82 82 82 82 82 82 82 82 82 81 81 81 82 82 81 81 81 81 81 81 81 81 80 80 79 79 78 77 77 76 75 74 74 73 72 72 71 70 69 68 68 67 67 67 67 67 67 68 68 70
107 107 107 107 107 107 106 105 104 103 103 102 100 99 97 95 94 92 92 92 91 91 90 89 89 89 89 89 89 89 89 88 87 85 83 81 81 80 81 81 81 80 80 80 79 79 79 80 80 80 80 80 80 80 80 80 80 80 79 78 77 76 76 75 74 73 72 71 71 70 70 69 68 68 67 66 66 66 65 65 66 66 66 67 68 69
107 107 107 107 106 106 105 104 103 103 102 101 99 98 96 94 93 92 92 91 90 90 89 89 88 87 87 87 87 87 87 87 85 84 81 80 79 79 80 79 79 78 78 78 77 78 78 78 78 79 79 79 79 79 79 79 79 78 77 76 75 74 73 72 71 70 69 69 68 68 67 67 67 66 66 65 65 64 64 64 64 65 65 66 67 68
107 107 107 106 106 105 104 103 103 102 101 100 99 97 95 94 93 92 91 90 89 89 88 87 87 86 85 85 85 85 85 85 84 82 80 78 78 78 78 78 77 77 76 76 76 76 77 77 77 77 77 78 78 78 78 77 77 76 74 73 72 71 70 69 68 67 67 66 66 66 66 65 65 65 64 64 64 64 64 64 64 64 64 65 66 67
107 107 106 106 105 104 104 103 102 101 101 99 98 97 95 94 93 92 90 89 88 87 87 86 85 84 84 83 83 84 84 84 82 80 78 77 77 77 77 77 76 75 75 74 74 75 76 76 77 77 77 77 77 76 76 75 74 73 72 70 69 68 67 66 65 65 64 64 64 64 64 64 64 64 64 64 63 63 63 63 63 63 63 64 64 65
106 106 106 105 104 104 103 103 102 101 100 99 97 96 95 93 92 91 89 88 87 86 85 84 84 83 82 82 82 82 82 82 80 78 76 76 76 76 76 75 75 74 73 73 73 73 75 76 76 76 76 75 75 74 74 72 71 70 69 67 66 65 64 64 63 63 62 62 63 63 63 63 63 63 63 63 63 63 62 62 62 62 62 62 63 63
106 106 105 105 104 103 103 102 101 100 99 98 97 95 94 93 91 90 89 87 86 85 84 83 82 82 81 81 80 80 81 80 78 76 75 75 75 75 74 74 74 73 72 72 71 72 73 75 75 75 74 73 73 72 71 70 69 67 66 64 63 62 62 61 61 61 61 61 61 62 62 62 62 63 63 62 62 62 61 61 61 61 61 61 61 62
105 105 104 104 103 102 102 101 100 99 98 97 95 94 93 92 90 89 88 86 85 84 83 82 81 80 80 79 79 79 79 78 77 75 74 73 73 73 73 73 73 72 72 71 71 71 71 72 73 73 73 72 71 70 68 67 66 64 63 61 61 60 60 59 59 59 59 60 60 61 61 62 62 62 62 62 61 60 60 60 60 59 59 60 60 61
104 103 103 103 102 101 101 100 99 97 96 95 94 92 91 90 89 87 86 85 84 82 81 81 80 80 79 79 78 78 77 76 75 74 73 72 72 72 72 72 72 72 71 71 71 70 70 70 70 70 70 69 68 67 66 65 63 62 60 59 58 58 58 57 57 58 58 59 59 60 60 61 61 61 61 61 60 59 59 58 58 58 58 58 58 59
103 102 102 101 101 100 99 98 97 95 94 93 92 90 89 88 87 86 85 83 82 81 80 79 79 79 78 78 77 77 76 75 74 72 72 71 71 71 71 71 71 71 71 71 70 70 69 68 68 67 66 65 65 64 63 62 61 59 58 57 56 56 56 56 56 56 57 58 58 59 59 59 60 60 60 60 59 59 58 57 57 56 56 56 56 57
101 101 100 100 99 98 97 96 95 93 92 91 89 88 87 86 85 84 83 82 81 80 79 79 78 78 77 77 76 75 75 74 73 72 71 71 70 70 71 71 71 71 70 70 69 68 67 66 65 63 62 62 62 61 61 60 58 57 56 55 55 55 54 54 55 55 56 56 57 57 58 58 59 59 59 59 59 58 57 56 55 55 54 54 55 55
100 99 99 98 97 96 95 94 92 91 90 88 87 86 85 84 83 82 81 80 80 79 78 78 77 76 76 75 75 74 74 73 72 71 71 70 70 70 70 70 70 70 69 69 68 66 65 63 62 60 59 58 58 58 58 57 56 55 55 54 54 53 53 53 53 53 54 55 55 56 57 57 58 58 59 58 58 57 56 55 54 53 53 54 54 55
98 97 97 96 95 94 92 91 90 89 87 86 85 84 83 82 81 80 80 79 78 78 77 77 76 76 75 74 73 73 72 72 71 71 70 70 69 69 69 69 69 69 68 67 65 64 62 60 58 57 56 56 55 55 55 55 55 54 53 53 53 52 52 52 52 52 52 53 54 55 55 56 57 57 58 57 57 56 55 54 53 53 54 54 55 56
96 95 94 93 92 91 90 89 88 86 85 84 83 82 82 81 80 79 78 78 77 77 77 76 76 75 74 73 72 72 71 71 70 70 70 69 69 69 68 68 68 67 66 64 62 60 59 57 55 54 54 53 53 53 53 53 53 53 52 52 52 52 51 51 50 50 51 52 52 53 54 55 56 56 56 56 55 55 54 54 53 54 54 55 56 57
94 93 92 91 90 89 88 87 85 84 83 82 81 81 80 79 78 78 77 77 77 76 76 75 75 74 73 73 72 71 70 70 70 69 69 69 68 68 67 67 66 65 63 61 59 57 55 54 52 51 51 51 51 52 52 52 52 51 51 51 51 51 50 50 49 49 50 50 51 52 53 54 55 55 55 55 54 54 53 53 53 53 54 55 56 56
92 91 90 89 88 86 85 84 83 82 81 80 80 79 78 77 77 76 76 76 76 75 75 74 74 73 73 72 71 70 70 69 69 69 68 68 67 67 66 65 64 62 61 59 57 55 53 51 50 49 49 49 49 50 51 51 51 50 49 49 49 49 49 49 49 48 49 49 50 50 51 52 53 54 54 54 53 52 52 52 52 52 53 54 55 56
89 88 87 86 85 84 83 82 81 80 79 78 78 77 77 76 76 75 75 75 75 74 74 73 73 73 72 71 71 70 69 69 68 68 67 67 66 65 64 63 61 60 58 56 55 53 51 49 48 47 47 47 48 49 49 50 50 49 48 48 48 48 48 48 48 48 48 48 48 49 50 50 51 52 53 53 52 51 51 50 51 51 52 53 54 55
87 86 85 84 83 82 81 80 79 78 77 77 76 76 75 75 74 74 74 74 74 74 73 73 72 72 71 71 70 69 68 68 67 67 66 65 64 63 62 60 59 57 55 54 52 51 49 48 47 46 46 46 47 47 48 49 49 48 47 46 46 46 47 47 47 47 47 47 47 47 48 49 50 51 51 52 51 51 50 50 50 51 52 52 53 54
85 84 83 82 81 80 79 78 77 77 76 75 75 74 74 73 73 73 73 73 73 73 72 72 71 71 71 70 70 69 68 67 66 65 64 63 62 60 59 57 56 54 53 51 50 49 48 46 45 45 45 45 46 46 47 48 48 47 46 45 45 45 45 46 47 46 46 46 45 46 46 47 48 49 50 51 51 50 49 49 49 50 50 51 52 53
82 82 81 80 79 78 77 76 76 75 74 74 73 73 72 72 72 72 72 72 72 72 71 71 71 70 70 70 69 68 67 66 65 64 62 61 59 58 56 55 53 52 51 49 48 47 46 45 44 44 44 44 45 46 47 47 47 47 46 45 44 44 44 45 45 45 45 45 44 44 44 45 47 48 49 50 50 50 49 48 48 48 49 50 51 52
80 80 79 78 77 76 76 75 74 74 73 72 72 72 72 71 71 71 71 71 71 71 71 70 70 70 69 69 68 67 66 65 63 62 60 58 57 55 54 52 51 50 49 48 46 46 45 44 43 43 43 44 44 45 46 46 46 46 45 44 44 44 44 44 44 43 43 43 43 43 43 44 45 47 48 49 49 49 48 47 47 47 48 49 49 50
78 78 77 76 75 75 74 74 73 72 72 71 71 71 71 71 70 70 70 70 70 70 70 70 69 69 68 68 67 66 65 63 61 60 58 56 54 53 51 50 49 48 47 46 45 44 43 42 42 42 43 43 44 45 45 45 45 45 45 44 44 43 43 43 42 42 42 42 42 42 42 43 44 46 47 48 48 48 47 46 46 46 46 47 48 48
76 76 75 75 74 74 73 72 72 71 71 70 70 70 70 70 70 70 70 70 69 69 69 69 68 67 67 66 65 64 63 61 59 57 55 54 52 50 49 48 47 46 45 44 44 43 42 41 41 41 41 42 44 44 45 45 45 44 44 44 43 43 43 43 42 41 41 41 41 41 41 42 43 44 45 47 47 47 46 45 44 44 44 45 46 46
75 74 74 73 73 72 72 71 71 70 70 70 70 69 69 69 69 69 69 69 69 68 68 67 67 66 66 65 64 62 61 59 57 55 54 52 50 48 47 46 45 44 44 43 42 42 41 40 39 39 40 41 42 43 44 44 44 44 43 43 43 43 42 42 42 41 40 40 40 40 40 41 42 43 44 45 46 46 45 44 43 43 43 44 44 45
73 73 73 72 72 71 71 70 70 69 69 69 69 69 69 68 68 68 68 68 68 67 67 66 65 65 64 63 61 60 58 57 55 53 51 50 48 47 46 45 44 43 43 42 41 40 40 39 38 37 38 39 40 42 43 43 44 43 43 43 42 42 42 42 41 41 40 40 39 39 39 40 40 41 42 43 44 44 43 43 42 42 42 42 43 44
72 72 71 71 70 70 70 69 69 69 69 69 68 68 68 68 67 67 67 67 66 66 65 64 64 63 62 60 59 58 56 54 53 51 49 48 46 45 44 44 43 42 41 41 40 39 39 38 37 36 36 36 38 39 41 42 43 43 43 42 42 42 41 41 41 40 40 39 39 39 39 39 39 40 40 41 41 42 41 41 40 40 40 41 42 42
71 71 70 70 69 69 68 68 68 68 68 68 68 67 67 67 66 66 66 65 64 64 63 63 62 61 59 58 57 55 53 52 50 49 47 46 45 44 43 42 42 41 40 39 39 38 38 37 36 35 34 34 35 37 39 40 41 42 42 42 42 41 41 41 41 40 39 39 39 38 38 38 38 38 38 39 39 39 39 39 39 39 39 39 40 40
Wind_Direction
281 280 280 280 280 280 280 280 280 280 280 280 280 280 280 280 280 280 280 280 280 280 281 281 281 281 281 281 281 281 281 280 280 280 280 280 280 280 279 279 279 279 279 279 279 279 279 279 279 279 278 278 278 278 278 278 278 278 277 277 276 276 275 275 274 273 272 272 271 270 270 269 268 268 267 267 266 266 265 265 264 264 263 263 262 262
281 280 280 280 279 279 279 279 279 279 280 280 279 280 280 280 280 280 280 280 280 280 280 280 280 280 280 280 280 280 280 280 280 280 280 280 279 279 279 279 279 279 279 279 279 279 279 279 279 279 279 279 278 278 278 278 278 278 277 277 276 276 275 275 274 273 273 272 271 270 270 269 269 268 267 267 267 266 266 265 265 265 264 264 263 263
281 280 280 280 280 280 280 280 280 280 280 280 280 280 280 280 280 280 280 280 280 280 280 281 281 281 281 281 281 280 280 280 280 280 280 280 280 279 279 279 279 279 279 279 279 279 279 279 279 279 279 279 278 278 278 278 278 277 277 276 276 275 275 274 274 273 272 272 271 270 270 269 269 268 268 267 267 266 266 266 266 266 265 265 265 264
281 281 280 280 281 281 281 281 281 281 281 281 281 281 281 281 281 281 281 281 281 281 281 281 281 281 281 281 281 281 281 281 281 280 280 280 280 280 280 280 280 280 280 279 279 279 279 279 279 279 279 279 279 278 278 278 277 277 276 276 275 275 274 274 274 273 273 272 272 271 270 270 269 269 268 268 267 267 267 267 266 266 266 266 265 265
281 281 281 281 281 281 282 282 282 282 282 282 282 281 281 281 281 282 282 282 282 282 282 282 282 282 282 282 282 282 282 281 281 281 281 281 281 281 280 280 280 280 280 280 280 280 280 280 280 279 279 279 279 278 278 278 277 277 276 276 275 275 275 274 274 274 273 273 273 272 272 271 271 270 269 269 268 268 268 267 267 267 267 266 266 265
281 281 282 282 282 282 282 282 282 282 282 282 282 282 282 282 282 282 282 282 282 282 282 283 283 283 282 282 282 282 282 282 282 281 281 281 281 281 281 281 281 281 281 281 280 280 280 280 280 280 279 279 279 278 278 277 277 277 276 276 275 275 275 275 275 275 274 274 274 274 273 273 272 271 271 270 270 269 269 268 268 268 267 267 266 266
282 282 282 282 282 283 283 283 283 283 283 283 283 283 283 283 283 283 283 283 283 283 283 283 283 283 283 283 282 282 282 282 282 282 282 281 281 281 281 281 281 281 281 281 281 281 281 280 280 280 279 279 279 278 278 277 277 277 276 276 276 276 276 276 276 276 276 276 275 275 275 274 274 273 272 272 271 270 270 269 269 268 268 268 267 267
282 283 283 283 283 283 284 284 283 284 283 283 283 283 283 283 283 283 283 283 283 284 284 284 283 283 283 283 283 283 282 282 282 282 282 282 282 281 281 281 281 281 281 281 281 281 281 280 280 280 279 279 279 278 278 277 277 277 277 277 277 277 277 277 277 277 277 277 276 276 276 275 275 274 274 273 273 272 271 270 270 269 269 268 268 267
283 283 284 284 284 285 285 284 284 284 284 284 284 284 284 284 284 284 284 284 284 284 284 284 284 284 284 283 283 283 283 283 283 282 282 282 282 282 282 282 282 282 281 281 281 281 281 280 280 280 279 279 278 278 278 278 277 277 277 277 278 278 278 278 278 278 278 277 277 277 276 276 276 275 275 274 274 273 272 271 271 270 269 269 268 268
284 284 285 285 285 285 285 285 285 285 285 285 284 284 284 284 284 284 284 284 284 285 285 285 285 285 284 284 284 284 284 284 283 283 283 283 283 282 282 282 282 282 281 281 281 281 280 280 280 279 279 279 278 278 278 278 278 278 278 278 278 278 279 278 278 278 278 278 277 277 277 276 276 276 275 275 274 273 273 272 271 270 270 269 268 268
285 285 286 286 286 286 286 286 286 285 285 285 285 285 284 284 284 285 285 285 285 285 285 285 285 286 285 285 285 285 285 284 284 284 284 283 283 283 283 282 282 282 281 281 281 281 280 280 280 279 279 279 278 278 278 278 278 278 278 279 279 279 279 279 278 278 278 277 277 277 277 276 276 276 275 275 274 273 273 272 271 271 270 269 268 268
286 286 287 287 287 287 287 286 286 286 286 286 285 285 285 285 285 285 285 285 286 286 286 286 286 286 286 286 286 286 285 285 285 284 284 284 283 283 283 282 282 282 282 281 281 281 280 280 280 279 279 279 279 278 278 278 278 279 279 279 279 279 279 278 278 278 278 277 277 277 276 276 275 275 275 274 273 273 272 272 271 270 269 269 268 267
287 287 287 288 288 288 287 287 287 287 286 286 286 286 286 285 286 286 286 286 287 287 287 288 288 288 287 287 287 286 286 285 285 285 284 284 284 283 283 282 282 282 282 281 281 281 280 280 280 280 280 279 279 279 279 279 279 279 279 279 279 279 279 278 278 278 277 277 277 276 276 275 275 274 274 273 273 272 272 271 270 270 269 268 268 267
288 288 288 288 288 288 288 288 288 287 287 287 286 286 286 286 287 287 287 287 288 288 288 288 289 288 288 288 287 287 286 286 285 285 284 284 284 283 283 283 282 282 282 282 281 281 281 280 280 280 280 280 280 279 279 279 279 279 279 279 279 279 279 278 278 278 277 277 277 276 276 275 275 274 274 273 273 272 271 271 270 269 269 268 267 267
289 289 289 289 289 289 289 288 288 288 287 287 287 287 287 288 288 288 288 289 289 289 289 289 289 289 289 288 288 287 286 286 285 285 285 284 284 283 283 283 283 282 282 282 282 281 281 281 281 281 281 280 280 280 280 280 280 280 280 280 280 279 279 279 278 278 278 277 277 276 276 275 275 274 274 273 273 272 271 271 270 269 269 268 267 267
290 290 290 290 290 290 289 289 289 288 288 288 288 288 288 289 289 289 290 290 290 290 290 290 290 290 289 288 288 287 287 286 286 285 285 284 284 284 284 284 283 283 283 283 283 282 282 282 282 281 281 281 281 281 281 281 281 281 281 281 280 280 280 279 279 279 278 278 277 277 276 276 275 275 274 274 273 273 272 271 270 270 269 268 268 267
290 291 291 291 290 290 290 289 289 289 289 289 289 289 289 289 290 290 290 291 291 291 291 291 290 290 289 289 288 288 287 287 286 285 285 285 285 284 284 284 284 284 284 284 283 283 283 283 283 282 282 282 282 282 282 282 282 282 282 281 281 281 281 280 280 280 279 279 278 278 277 277 277 276 275 275 274 273 273 272 271 270 269 269 268 267
291 291 291 291 291 290 290 290 289 289 289 289 289 289 290 290 290 291 291 291 291 291 291 291 290 290 290 289 289 288 288 287 287 286 286 286 286 285 285 285 285 285 285 285 284 284 284 284 284 283 283 283 283 283 283 283 283 283 283 282 282 282 281 281 281 280 280 280 279 279 278 278 277 277 276 276 275 274 273 272 272 271 270 269 268 268
291 291 291 291 290 290 290 290 290 290 290 290 290 290 290 291 291 291 292 292 292 292 292 291 291 290 290 290 289 289 288 288 288 287 287 287 287 287 286 286 286 286 286 286 285 285 285 285 284 284 284 284 284 284 284 284 284 284 283 283 283 282 282 282 281 281 281 280 280 280 279 279 278 278 277 276 275 275 274 273 272 271 271 270 269 268
291 291 291 291 291 290 290 290 290 290 290 290 291 291 291 291 292 292 292 292 292 292 292 292 291 291 291 291 290 289 289 289 288 288 288 288 288 287 287 287 287 287 287 286 286 286 285 285 285 285 285 285 285 285 284 284 284 284 284 284 283 283 283 282 282 282 282 281 281 280 280 279 279 278 277 276 276 275 274 274 273 272 271 270 270 269
291 291 291 291 291 291 291 290 290 290 291 291 291 292 292 292 292 293 293 293 293 293 293 292 292 292 292 292 291 290 290 289 289 289 289 288 288 288 288 288 288 288 287 287 286 286 286 286 286 286 285 285 285 285 285 285 284 284 284 284 284 284 283 283 283 283 282 282 281 281 280 280 279 278 277 277 276 275 275 274 273 273 272 271 271 270
292 292 291 291 291 291 291 291 291 291 292 292 292 293 293 293 293 294 294 294 294 294 293 293 293 293 293 292 292 291 290 290 290 290 289 289 289 289 289 289 288 288 288 287 287 286 286 286 286 286 286 285 285 285 285 285 285 285 285 284 284 284 284 284 284 283 283 282 282 281 280 280 279 278 278 277 276 276 275 274 274 273 273 272 272 271
292 292 292 292 292 292 292 292 292 292 293 293 293 294 294 294 294 295 295 294 294 294 294 293 293 293 293 292 292 291 291 291 290 290 290 290 289 289 289 289 289 288 288 287 287 287 287 287 286 286 286 286 285 285 285 285 285 285 285 285 285 285 285 284 284 283 283 282 282 281 280 280 279 278 278 277 277 276 276 275 275 274 274 273 273 272
293 293 292 292 292 292 292 293 293 293 294 294 294 294 294 294 295 295 295 295 294 294 293 293 293 293 293 292 292 292 291 291 290 290 290 290 290 290 290 289 289 288 288 288 288 287 287 287 287 286 286 286 286 286 286 286 286 286 286 286 285 285 285 284 284 283 283 282 281 281 280 280 279 279 278 278 277 277 276 276 275 275 275 274 274 273
293 293 293 293 293 293 293 294 294 294 294 295 295 295 295 295 295 295 295 295 294 294 294 294 293 293 293 292 292 292 291 291 291 290 290 291 291 290 290 289 289 289 288 288 288 288 288 287 287 287 286 286 286 286 286 286 286 286 286 286 286 285 285 284 284 283 282 282 281 281 280 280 280 279 279 278 278 277 277 277 276 276 276 275 275 274
294 294 294 294 294 294 294 294 295 295 295 295 295 295 295 296 296 296 296 295 295 294 294 294 294 293 293 292 292 292 291 291 291 291 291 291 291 291 290 290 289 289 289 289 288 288 288 287 287 287 287 287 287 287 287 287 287 287 286 286 286 285 285 284 283 283 282 282 281 281 281 280 280 280 279 279 279 278 278 277 277 276 276 276 275 274
294 294 294 294 294 295 295 295 296 296 296 296 296 296 296 296 296 296 296 295 295 295 295 294 294 293 293 293 293 292 292 291 291 291 292 292 292 291 290 290 290 289 289 289 289 289 288 288 288 287 287 287 287 287 287 287 287 287 286 286 285 285 284 284 283 283 282 282 282 281 281 281 281 281 280 280 279 279 278 278 277 277 276 276 275 275
294 294 295 295 295 295 296 296 296 296 296 297 297 297 297 297 297 296 296 295 295 295 295 294 294 293 293 293 293 292 292 291 291 292 293 293 292 292 291 290 290 290 290 290 289 289 289 288 288 288 288 288 288 288 287 287 287 286 286 285 285 284 284 284 283 283 283 283 283 282 282 282 282 282 281 281 280 280 279 278 278 277 277 276 276 275
295 295 295 295 296 296 297 297 297 297 297 297 297 297 297 297 297 296 296 295 295 295 295 294 294 294 293 293 293 292 292 292 292 293 293 293 292 292 291 291 290 290 290 290 290 289 289 289 289 289 289 288 288 288 287 287 287 286 286 285 285 285 284 284 284 284 284 284 284 283 283 283 283 282 282 282 281 280 280 279 279 278 277 277 276 275
295 295 296 296 296 297 297 297 297 297 297 298 298 297 297 297 297 296 296 295 295 295 294 294 294 294 293 293 293 292 292 292 292 293 293 293 292 292 291 291 291 290 290 290 290 290 290 290 289 289 289 289 288 288 287 287 286 286 286 285 285 285 285 285 285 285 285 285 285 284 284 284 283 283 283 282 282 282 281 281 280 279 279 278 277 276
296 296 296 297 297 297 297 297 298 298 298 298 298 297 297 297 296 296 296 295 295 295 294 294 294 294 293 293 292 292 292 292 293 293 293 293 292 292 291 291 291 291 291 291 290 290 290 290 290 290 289 289 288 288 287 287 286 286 286 286 286 285 285 285 286 285 285 285 285 285 284 284 284 283 283 283 283 283 282 282 282 281 280 279 278 277
296 296 296 297 297 297 297 297 297 297 297 297 297 297 297 296 296 296 296 295 295 295 294 294 294 293 293 293 292 292 292 292 293 293 293 293 292 292 292 292 291 291 291 291 291 290 290 290 290 290 289 289 288 287 287 286 286 286 286 286 286 286 286 286 286 286 286 285 285 285 285 285 284 284 284 284 284 284 284 284 283 283 282 281 280 279
296 296 296 297 297 297 297 297 297 297 297 297 297 296 296 296 296 295 295 295 295 295 294 294 294 293 293 293 292 292 292 293 293 293 293 293 292 292 292 292 292 292 292 292 291 291 290 290 290 289 289 288 288 287 287 286 286 286 286 286 286 286 286 286 286 286 285 285 285 285 285 285 285 285 285 286 286 286 285 285 285 284 283 282 281 280
296 296 296 296 297 296 296 296 296 296 296 296 296 296 296 295 295 295 295 295 295 294 294 294 293 293 293 293 293 293 293 293 293 293 293 293 293 293 292 292 292 292 292 292 291 291 291 290 289 289 288 288 287 287 287 286 286 286 286 286 286 286 286 286 286 286 286 286 286 286 286 286 287 287 287 287 287 287 287 286 286 285 284 283 282 281
296 296 296 296 296 296 296 296 296 296 295 295 295 295 295 295 295 294 294 294 294 294 294 293 293 293 293 293 293 293 293 293 293 294 293 293 293 293 293 293 292 292 292 292 292 291 291 290 289 288 287 287 286 286 286 286 286 286 286 286 286 286 286 286 286 286 286 286 287 287 287 288 288 288 288 288 288 288 288 287 287 286 285 285 284 283
296 296 296 296 296 296 295 295 295 295 295 295 295 295 294 294 294 294 294 294 294 294 293 293 293 293 293 293 293 293 293 294 294 294 294 294 293 293 293 293 293 292 292 292 291 291 290 290 289 288 287 286 285 285 285 286 286 286 286 286 286 285 285 285 285 286 286 287 287 288 288 288 288 289 289 289 289 289 289 288 288 288 288 288 287 287
296 296 295 295 295 295 295 295 295 295 294 294 294 294 294 294 294 294 294 294 294 293 293 293 293 293 293 293 293 293 293 294 294 294 294 294 293 293 293 293 292 292 292 292 291 291 290 289 288 287 286 286 285 285 285 285 285 286 286 285 285 285 285 285 286 286 287 287 288 288 289 289 289 289 290 290 290 290 290 290 291 291 291 291 291 290
295 295 295 295 294 294 294 294 294 294 294 294 294 294 294 294 294 294 293 293 293 293 293 293 293 293 293 293 293 293 293 294 294 294 294 294 294 293 293 293 292 292 292 291 291 290 289 288 287 287 286 285 285 284 284 284 285 285 285 285 285 285 285 286 286 287 287 288 288 289 289 290 290 290 291 291 292 292 293 293 294 294 294 294 294 293
295 295 294 294 294 294 294 294 294 294 294 294 293 293 293 293 293 293 293 293 293 292 292 292 293 293 293 293 293 293 294 294 294 294 294 294 294 293 293 293 292 292 291 291 290 289 289 288 287 286 285 284 284 284 284 284 284 284 285 285 286 286 286 286 287 287 287 288 289 289 290 290 291 292 292 293 294 295 296 297 297 297 297 297 296 295
294 294 294 293 293 293 293 293 293 293 293 293 293 293 293 293 293 293 293 292 292 292 292 292 292 293 293 293 293 293 293 294 294 294 294 294 294 293 293 293 292 292 291 290 290 289 288 287 286 285 284 283 283 283 283 283 284 284 284 285 285 286 286 287 287 287 288 288 289 290 290 291 292 293 293 294 295 296 297 298 298 298 298 298 298 297
294 293 293 293 293 293 293 293 293 293 292 292 292 292 292 293 292 292 292 292 292 292 292 292 292 292 293 293 293 293 293 294 294 294 294 294 293 293 293 292 292 291 290 290 289 288 287 287 285 284 283 283 282 282 282 283 283 283 284 284 285 286 287 287 287 288 288 289 289 290 291 292 293 294 294 295 296 296 297 298 298 299 298 298 298 297
293 293 293 292 292 292 292 292 292 292 292 292 292 292 292 292 292 292 291 291 291 291 292 292 292 292 292 293 293 293 293 294 294 294 294 294 293 293 292 292 291 290 290 289 289 288 287 286 285 284 283 282 282 282 281 282 282 283 283 284 284 285 286 286 287 287 288 288 289 290 291 292 294 294 295 296 296 296 297 298 298 299 299 298 298 297
293 292 292 292 292 292 292 292 292 292 292 292 292 292 292 291 291 291 291 291 291 291 291 291 292 292 292 292 293 293 293 294 294 294 294 293 293 292 292 291 290 290 289 288 288 287 287 286 285 284 283 282 282 281 281 282 282 283 283 283 284 284 285 285 286 287 288 288 289 290 292 293 294 295 295 295 296 296 297 298 299 299 299 298 298 297
292 292 292 291 291 291 291 291 291 291 291 291 291 291 291 291 290 290 290 290 290 291 291 291 292 292 292 292 293 293 293 293 294 293 293 293 292 292 291 290 289 289 288 287 287 286 286 285 284 284 283 282 282 281 281 282 282 283 284 284 284 284 284 284 286 287 288 289 290 291 292 293 294 294 295 295 295 296 297 298 298 299 298 298 297 296
291 291 291 291 291 291 291 291 291 291 291 291 291 290 290 290 290 290 290 290 290 290 291 291 291 292 292 292 293 293 293 293 293 293 293 292 291 291 290 289 288 288 287 286 286 285 285 284 284 283 283 282 282 282 282 282 283 283 284 284 284 284 284 284 285 287 288 290 291 292 293 293 294 294 294 295 295 296 297 297 298 298 298 298 296 295
291 291 291 290 290 290 290 290 291 291 290 290 290 290 290 289 289 289 289 290 290 290 291 291 291 292 292 292 293 293 293 293 293 293 292 291 291 290 289 288 287 287 286 285 285 284 284 284 283 283 283 283 282 282 282 282 283 284 284 285 285 285 285 285 286 287 288 290 291 291 292 293 293 293 294 294 295 295 296 297 298 298 298 297 296 294
290 290 290 290 290 290 290 290 290 290 290 289 289 289 289 289 289 289 289 290 290 290 291 291 291 292 292 292 292 293 293 293 293 292 291 291 290 289 288 287 286 286 285 284 284 284 283 283 283 283 283 283 283 283 283 283 283 284 284 285 286 286 286 286 287 288 288 289 290 291 291 292 292 293 293 294 294 295 296 296 297 298 298 296 295 293
290 290 290 290 290 290 290 290 290 290 289 289 289 289 289 289 289 289 289 290 290 290 291 291 291 292 292 292 292 293 293 292 292 292 291 290 289 288 287 287 286 285 284 284 284 283 283 283 283 282 282 282 282 283 283 284 284 284 285 285 286 286 287 287 288 288 288 289 289 290 290 291 292 292 293 294 295 295 296 297 297 298 297 296 294 292
289 289 289 289 289 289 289 289 289 289 288 288 288 288 288 289 289 289 289 290 290 291 291 291 291 291 292 292 292 292 292 292 291 291 290 290 289 288 287 287 286 285 285 284 284 284 283 283 282 282 282 282 282 283 283 284 284 285 285 286 286 287 287 288 288 288 289 289 289 289 290 290 291 292 293 294 295 296 296 297 298 298 297 296 295 293
289 289 289 289 289 289 289 288 288 288 288 288 288 288 288 289 289 289 290 290 290 291 291 291 291 291 291 292 292 292 291 291 291 290 290 289 289 288 288 287 287 286 286 286 285 285 285 284 283 282 281 281 282 282 283 284 284 285 285 286 286 287 287 288 288 288 289 289 289 289 289 290 290 292 293 294 295 296 297 297 298 298 298 297 296 294
288 288 288 288 288 288 288 288 287 287 287 287 288 288 288 289 289 289 290 290 290 290 291 291 291 291 291 291 291 291 290 290 290 289 289 289 289 288 288 288 288 288 288 288 287 287 286 285 283 282 280 279 280 281 282 283 284 285 285 286 286 287 287 287 288 288 288 288 289 289 289 290 291 292 293 294 295 296 297 298 298 298 298 298 297 296
Height
10498 10496 10495 10493 10491 10488 10485 10483 10481 10478 10475 10473 10471 10468 10466 10464 10462 10460 10458 10456 10455 10453 10451 10450 10448 10446 10443 10441 10438 10435 10432 10429 10426 10423 10421 10418 10416 10414 10411 10410 10408 10406 10404 10403 10401 10399 10398 10396 10395 10393 10391 10390 10388 10387 10386 10385 10384 10383 10383 10382 10381 10381 10380 10380 10380 10381 10381 10382 10382 10383 10383 10383 10383 10383 10383 10382 10381 10379 10377 10375 10373 10371 10370 10369 10368 10367
10491 10490 10488 10486 10485 10482 10479 10476 10474 10472 10469 10466 10464 10462 10460 10458 10456 10453 10451 10450 10448 10446 10445 10443 10441 10439 10437 10434 10431 10428 10425 10421 10418 10415 10413 10410 10407 10405 10402 10400 10398 10396 10395 10393 10391 10390 10388 10386 10384 10382 10381 10379 10378 10376 10375 10374 10373 10371 10371 10370 10369 10368 10368 10368 10368 10368 10368 10369 10370 10370 10371 10371 10371 10371 10371 10370 10368 10366 10365 10363 10360 10358 10357 10356 10355 10355
10483 10482 10480 10478 10477 10475 10471 10468 10466 10465 10462 10459 10457 10455 10453 10451 10448 10446 10445 10443 10441 10439 10438 10436 10434 10431 10429 10426 10423 10420 10416 10413 10410 10407 10404 10401 10398 10395 10393 10391 10388 10386 10385 10383 10381 10380 10378 10376 10374 10372 10370 10368 10367 10365 10364 10363 10361 10360 10359 10358 10357 10356 10355 10355 10355 10355 10356 10356 10358 10358 10358 10359 10359 10359 10359 10358 10356 10355 10353 10350 10348 10346 10345 10343 10342 10341
10476 10475 10473 10471 10469 10466 10463 10461 10458 10456 10454 10451 10450 10447 10445 10443 10441 10439 10437 10436 10433 10431 10430 10428 10426 10423 10421 10418 10415 10411 10408 10405 10401 10398 10395 10391 10389 10386 10383 10381 10379 10376 10375 10373 10371 10369 10367 10365 10363 10361 10359 10357 10356 10354 10352 10351 10350 10348 10346 10346 10345 10344 10343 10343 10343 10343 10344 10345 10345 10346 10346 10346 10346 10346 10346 10345 10344 10343 10341 10339 10336 10335 10333 10331 10330 10328
10469 10467 10465 10463 10461 10458 10456 10453 10451 10448 10446 10443 10441 10439 10437 10435 10433 10431 10429 10428 10425 10423 10421 10420 10417 10415 10412 10409 10406 10402 10399 10395 10392 10388 10385 10382 10379 10376 10373 10371 10368 10366 10365 10363 10361 10358 10356 10355 10352 10350 10348 10346 10344 10342 10340 10338 10337 10336 10335 10333 10333 10332 10331 10331 10331 10332 10332 10333 10333 10333 10333 10334 10333 10333 10333 10332 10331 10330 10328 10326 10325 10323 10320 10318 10316 10315
10461 10460 10457 10456 10453 10451 10448 10445 10443 10440 10438 10435 10433 10431 10429 10426 10425 10423 10421 10419 10417 10415 10413 10411 10408 10406 10403 10400 10396 10393 10390 10386 10383 10379 10376 10372 10369 10366 10363 10361 10358 10356 10354 10352 10350 10348 10346 10343 10341 10339 10337 10335 10332 10330 10328 10326 10325 10323 10322 10321 10321 10321 10321 10321 10321 10321 10321 10321 10321 10321 10321 10320 10320 10320 10319 10318 10318 10317 10316 10314 10312 10310 10308 10305 10303 10302
10453 10451 10450 10448 10445 10443 10441 10438 10435 10431 10429 10426 10425 10422 10420 10418 10416 10414 10412 10410 10408 10406 10404 10402 10400 10397 10394 10391 10388 10384 10381 10378 10374 10370 10366 10363 10360 10356 10353 10351 10349 10346 10344 10342 10340 10337 10335 10333 10330 10328 10325 10323 10321 10318 10316 10315 10313 10311 10310 10310 10310 10310 10310 10310 10311 10311 10310 10310 10309 10308 10308 10307 10306 10306 10305 10305 10304 10303 10303 10301 10300 10297 10295 10293 10291 10289
10445 10443 10441 10440 10437 10435 10432 10430 10426 10423 10420 10418 10416 10413 10411 10409 10407 10405 10403 10401 10399 10397 10395 10393 10390 10388 10385 10381 10378 10375 10372 10369 10365 10362 10358 10354 10351 10348 10345 10342 10340 10337 10335 10332 10330 10326 10324 10321 10319 10316 10314 10311 10309 10306 10305 10302 10301 10300 10299 10299 10299 10299 10300 10300 10300 10300 10299 10298 10297 10296 10295 10293 10293 10292 10291 10291 10290 10290 10289 10288 10286 10285 10282 10280 10278 10276
10437 10435 10433 10431 10429 10426 10423 10420 10417 10415 10412 10409 10406 10404 10402 10400 10398 10396 10395 10393 10390 10388 10386 10384 10381 10378 10375 10372 10370 10366 10363 10359 10356 10353 10349 10345 10341 10338 10335 10333 10330 10328 10325 10322 10320 10316 10313 10311 10308 10305 10303 10300 10298 10295 10293 10291 10290 10289 10288 10288 10289 10289 10290 10290 10289 10289 10288 10286 10285 10283 10282 10281 10280 10279 10278 10278 10276 10276 10275 10275 10273 10271 10270 10268 10265 10263
10428 10426 10425 10422 10420 10418 10415 10411 10407 10404 10403 10400 10397 10395 10393 10391 10389 10386 10385 10384 10381 10379 10376 10374 10371 10368 10365 10362 10359 10356 10353 10350 10346 10343 10340 10336 10333 10329 10326 10323 10321 10318 10315 10312 10309 10306 10303 10300 10297 10294 10291 10289 10286 10284 10281 10280 10278 10278 10278 10279 10279 10280 10280 10279 10278 10278 10276 10275 10273 10272 10270 10269 10268 10267 10266 10265 10264 10263 10262 10261 10260 10259 10258 10255 10253 10250
10419 10417 10416 10413 10411 10408 10405 10402 10398 10395 10393 10390 10387 10385 10383 10381 10380 10378 10376 10374 10372 10370 10368 10365 10361 10359 10356 10351 10348 10346 10343 10341 10337 10333 10330 10327 10323 10319 10316 10313 10310 10308 10305 10303 10300 10296 10293 10290 10286 10283 10281 10278 10275 10273 10271 10269 10268 10268 10268 10269 10270 10270 10270 10269 10268 10266 10265 10264 10262 10261 10260 10258 10256 10255 10254 10253 10251 10251 10250 10248 10248 10246 10245 10243 10241 10238
10410 10408 10406 10404 10401 10398 10395 10391 10389 10386 10383 10380 10377 10374 10372 10371 10371 10370 10368 10365 10362 10360 10358 10355 10352 10349 10346 10341 10338 10334 10332 10330 10328 10324 10320 10316 10313 10309 10306 10303 10300 10298 10296 10293 10290 10286 10282 10279 10276 10273 10270 10267 10265 10262 10260 10259 10258 10258 10259 10260 10260 10260 10259 10258 10257 10256 10255 10253 10251 10250 10249 10247 10246 10245 10243 10241 10240 10239 10238 10237 10236 10235 10233 10231 10229 10226
10401 10399 10397 10395 10391 10388 10385 10381 10378 10375 10373 10370 10368 10365 10362 10360 10360 10360 10358 10355 10353 10351 10349 10346 10342 10338 10335 10331 10327 10323 10321 10319 10317 10315 10311 10306 10302 10298 10295 10293 10291 10288 10286 10283 10280 10276 10271 10268 10265 10263 10260 10256 10254 10251 10250 10248 10248 10248 10249 10250 10250 10250 10249 10248 10246 10245 10243 10242 10241 10240 10238 10236 10235 10233 10232 10231 10230 10228 10227 10226 10225 10223 10221 10220 10217 10215
10391 10390 10388 10385 10382 10378 10375 10372 10368 10365 10362 10359 10357 10355 10353 10351 10350 10348 10347 10345 10342 10340 10339 10336 10332 10327 10323 10320 10316 10313 10310 10309 10306 10305 10301 10296 10291 10287 10285 10283 10281 10278 10276 10273 10270 10265 10261 10259 10256 10252 10249 10246 10243 10241 10239 10239 10239 10239 10240 10240 10240 10240 10238 10237 10235 10234 10233 10231 10230 10228 10227 10225 10224 10223 10221 10220 10219 10218 10216 10215 10214 10212 10210 10208 10206 10204
10382 10380 10378 10375 10371 10368 10365 10361 10358 10355 10351 10348 10346 10345 10343 10341 10340 10338 10336 10334 10331 10330 10328 10326 10322 10318 10313 10310 10305 10301 10299 10298 10296 10295 10291 10286 10281 10277 10275 10273 10271 10268 10266 10263 10260 10255 10251 10249 10246 10242 10238 10236 10233 10231 10230 10229 10229 10230 10230 10230 10230 10229 10228 10226 10225 10223 10221 10220 10219 10218 10216 10215 10213 10212 10211 10210 10209 10208 10206 10205 10203 10201 10200 10197 10195 10193
10373 10371 10368 10364 10361 10358 10354 10351 10348 10344 10340 10338 10336 10335 10333 10331 10329 10327 10326 10324 10321 10319 10317 10315 10311 10307 10303 10299 10295 10291 10288 10286 10285 10283 10281 10277 10271 10266 10264 10263 10261 10258 10256 10253 10250 10245 10241 10239 10236 10232 10229 10226 10223 10221 10220 10220 10220 10220 10220 10220 10219 10218 10216 10215 10213 10212 10211 10210 10208 10206 10205 10204 10202 10201 10200 10199 10198 10196 10195 10193 10192 10190 10188 10186 10185 10183
10365 10361 10358 10355 10351 10347 10343 10340 10337 10334 10330 10328 10326 10325 10323 10321 10320 10318 10316 10313 10311 10309 10306 10304 10301 10298 10293 10288 10284 10281 10278 10276 10274 10272 10271 10268 10262 10257 10254 10253 10251 10248 10246 10243 10239 10235 10231 10228 10226 10222 10220 10216 10214 10212 10211 10210 10210 10210 10210 10209 10208 10207 10206 10205 10203 10201 10200 10198 10197 10196 10195 10193 10191 10190 10189 10188 10186 10185 10184 10183 10181 10180 10178 10176 10175 10173
10356 10353 10350 10345 10341 10337 10334 10330 10326 10323 10320 10318 10316 10315 10313 10312 10311 10309 10306 10304 10301 10299 10296 10293 10290 10287 10283 10280 10274 10270 10267 10266 10263 10261 10260 10258 10253 10248 10245 10242 10240 10238 10236 10233 10229 10225 10221 10219 10216 10213 10210 10207 10205 10203 10201 10200 10200 10200 10200 10199 10198 10197 10195 10194 10193 10191 10190 10188 10187 10185 10184 10183 10181 10180 10178 10177 10176 10174 10173 10171 10170 10168 10167 10166 10165 10163
10346 10344 10341 10336 10331 10327 10324 10321 10317 10313 10310 10308 10306 10306 10305 10303 10301 10299 10297 10295 10292 10290 10286 10283 10279 10276 10273 10270 10265 10260 10257 10255 10253 10251 10250 10248 10244 10239 10235 10232 10231 10229 10226 10223 10219 10215 10212 10210 10206 10204 10201 10198 10196 10194 10193 10191 10191 10190 10190 10189 10188 10187 10186 10184 10183 10181 10180 10178 10177 10175 10174 10172 10171 10170 10168 10166 10165 10163 10162 10161 10160 10158 10157 10156 10155 10153
10338 10335 10331 10326 10322 10318 10313 10310 10307 10304 10301 10298 10297 10296 10295 10293 10291 10290 10288 10285 10282 10279 10276 10273 10269 10265 10262 10259 10255 10250 10247 10245 10243 10241 10241 10240 10236 10231 10226 10223 10221 10220 10217 10213 10210 10206 10203 10201 10198 10195 10192 10190 10187 10185 10184 10183 10182 10181 10180 10180 10178 10178 10176 10175 10173 10171 10170 10169 10167 10165 10164 10162 10161 10159 10158 10156 10155 10154 10153 10151 10150 10148 10148 10147 10146 10145
10328 10324 10320 10316 10313 10309 10304 10300 10296 10294 10291 10290 10288 10286 10285 10283 10282 10280 10278 10276 10273 10269 10265 10262 10258 10255 10251 10248 10244 10240 10237 10235 10233 10232 10231 10230 10227 10222 10218 10215 10213 10211 10208 10204 10200 10197 10195 10193 10190 10187 10184 10181 10179 10177 10176 10175 10173 10172 10171 10171 10170 10168 10167 10166 10164 10162 10161 10159 10157 10156 10154 10152 10151 10149 10148 10146 10146 10145 10143 10142 10141 10140 10139 10138 10136 10135
10318 10313 10308 10305 10302 10299 10295 10290 10287 10284 10281 10280 10278 10275 10273 10273 10271 10270 10268 10266 10263 10259 10255 10252 10249 10245 10242 10238 10233 10230 10227 10225 10223 10222 10222 10221 10218 10214 10210 10207 10204 10202 10199 10195 10192 10189 10187 10185 10181 10178 10176 10173 10171 10169 10168 10166 10165 10164 10163 10162 10161 10160 10158 10156 10155 10153 10151 10150 10148 10146 10145 10143 10141 10140 10139 10138 10137 10136 10135 10133 10132 10131 10130 10129 10128 10126
10307 10303 10298 10295 10291 10288 10285 10281 10278 10275 10272 10270 10268 10266 10264 10263 10262 10260 10258 10256 10253 10250 10246 10243 10240 10237 10233 10228 10224 10220 10218 10216 10214 10213 10213 10212 10210 10206 10203 10199 10196 10193 10191 10187 10185 10181 10180 10176 10173 10170 10168 10166 10163 10161 10160 10158 10157 10156 10155 10154 10153 10151 10150 10148 10146 10145 10143 10141 10139 10137 10135 10134 10133 10131 10130 10130 10128 10127 10126 10125 10124 10123 10122 10121 10120 10118
10296 10293 10288 10285 10281 10278 10275 10271 10268 10265 10262 10260 10258 10255 10254 10253 10253 10252 10250 10247 10243 10240 10238 10235 10233 10228 10224 10220 10216 10212 10208 10206 10205 10204 10204 10203 10202 10200 10195 10191 10188 10185 10183 10180 10177 10175 10172 10169 10165 10162 10160 10158 10156 10154 10152 10150 10149 10148 10146 10146 10145 10143 10141 10140 10138 10136 10134 10132 10130 10128 10127 10125 10124 10123 10122 10121 10120 10119 10118 10117 10116 10115 10115 10113 10112 10110
10285 10281 10278 10275 10271 10268 10265 10262 10259 10256 10253 10250 10247 10245 10245 10245 10244 10243 10240 10237 10233 10231 10229 10227 10224 10220 10216 10212 10208 10203 10200 10197 10196 10195 10195 10195 10194 10191 10187 10183 10180 10178 10175 10172 10170 10167 10164 10161 10158 10155 10153 10151 10148 10146 10145 10143 10141 10140 10138 10138 10136 10135 10133 10131 10130 10128 10126 10124 10122 10120 10119 10118 10116 10115 10114 10113 10112 10111 10110 10110 10109 10108 10107 10106 10104 10102
10275 10271 10268 10265 10262 10259 10256 10253 10250 10246 10243 10241 10238 10237 10236 10235 10233 10232 10230 10226 10224 10221 10220 10218 10215 10211 10208 10205 10200 10196 10191 10188 10187 10186 10186 10187 10186 10183 10178 10175 10172 10170 10168 10165 10162 10160 10156 10153 10150 10148 10145 10143 10141 10140 10137 10135 10133 10132 10131 10130 10128 10126 10125 10123 10121 10120 10118 10116 10115 10113 10111 10110 10108 10107 10106 10105 10105 10104 10103 10103 10101 10101 10100 10098 10096 10095
10264 10261 10258 10255 10253 10250 10246 10243 10240 10237 10234 10231 10229 10226 10225 10225 10223 10222 10220 10217 10215 10212 10210 10208 10205 10202 10200 10196 10193 10188 10183 10180 10178 10178 10180 10180 10177 10174 10170 10166 10165 10163 10160 10158 10155 10152 10149 10146 10143 10140 10138 10136 10134 10132 10130 10128 10126 10125 10123 10122 10120 10119 10118 10116 10114 10112 10110 10109 10107 10105 10104 10102 10101 10100 10099 10098 10097 10096 10096 10095 10095 10093 10093 10091 10089 10087
10254 10251 10248 10246 10243 10240 10237 10234 10231 10228 10225 10221 10219 10217 10216 10215 10214 10212 10210 10208 10206 10204 10201 10200 10196 10194 10191 10188 10185 10180 10176 10172 10170 10170 10172 10171 10169 10165 10161 10159 10157 10155 10153 10151 10148 10145 10142 10138 10136 10134 10131 10130 10127 10125 10123 10121 10119 10117 10116 10115 10113 10111 10110 10108 10107 10105 10103 10101 10100 10098 10096 10095 10093 10093 10091 10091 10090 10089 10088 10088 10088 10086 10086 10084 10082 10080
10245 10242 10239 10236 10234 10231 10228 10225 10221 10218 10215 10213 10210 10208 10206 10205 10205 10203 10200 10199 10198 10195 10193 10191 10188 10186 10183 10180 10177 10173 10168 10165 10163 10164 10165 10164 10161 10157 10154 10151 10150 10148 10147 10145 10142 10139 10135 10131 10128 10126 10125 10122 10120 10117 10115 10113 10111 10110 10108 10107 10106 10104 10103 10101 10100 10098 10096 10094 10093 10091 10089 10088 10086 10085 10085 10083 10083 10082 10081 10081 10080 10080 10078 10077 10075 10073
10236 10233 10230 10228 10225 10222 10219 10215 10212 10209 10206 10204 10201 10199 10197 10196 10195 10193 10191 10190 10189 10187 10185 10182 10180 10178 10175 10173 10170 10166 10161 10158 10157 10158 10158 10156 10153 10150 10147 10145 10142 10141 10140 10139 10136 10133 10128 10124 10121 10119 10118 10115 10113 10110 10108 10106 10105 10103 10101 10100 10099 10097 10096 10094 10093 10091 10089 10087 10086 10084 10082 10081 10080 10078 10078 10076 10076 10075 10075 10073 10073 10072 10071 10070 10068 10065
10228 10225 10223 10219 10216 10213 10210 10207 10204 10201 10198 10196 10194 10191 10189 10187 10186 10184 10183 10181 10180 10178 10176 10174 10172 10170 10167 10165 10162 10158 10155 10151 10151 10151 10151 10149 10146 10143 10140 10138 10135 10133 10133 10132 10130 10127 10123 10118 10114 10111 10109 10108 10105 10103 10101 10099 10098 10096 10095 10094 10092 10090 10089 10088 10086 10085 10083 10081 10079 10078 10076 10075 10073 10072 10071 10070 10069 10068 10067 10066 10065 10065 10063 10062 10060 10058
10221 10218 10215 10211 10208 10205 10202 10199 10196 10194 10191 10189 10186 10184 10181 10180 10178 10176 10174 10173 10171 10170 10168 10166 10164 10161 10159 10157 10155 10151 10148 10146 10145 10145 10144 10142 10139 10136 10133 10131 10128 10126 10125 10125 10123 10121 10118 10113 10108 10104 10101 10100 10098 10096 10094 10093 10091 10090 10089 10088 10086 10085 10083 10081 10080 10078 10076 10075 10073 10071 10070 10068 10067 10065 10064 10063 10062 10061 10060 10059 10058 10057 10056 10054 10052 10050
10213 10210 10207 10204 10201 10198 10195 10192 10189 10186 10184 10182 10180 10177 10175 10173 10170 10168 10166 10165 10163 10161 10160 10158 10156 10153 10151 10150 10147 10145 10142 10140 10138 10138 10137 10135 10132 10129 10126 10125 10122 10120 10118 10117 10116 10114 10112 10108 10104 10100 10096 10093 10090 10088 10087 10086 10085 10084 10083 10082 10080 10079 10077 10076 10075 10073 10071 10069 10067 10066 10064 10062 10060 10059 10057 10056 10055 10055 10054 10053 10051 10050 10048 10046 10045 10043
10205 10202 10199 10196 10193 10190 10187 10185 10182 10180 10177 10175 10173 10170 10168 10166 10163 10161 10159 10157 10155 10154 10152 10150 10148 10146 10144 10142 10140 10138 10136 10133 10133 10131 10130 10128 10126 10123 10120 10118 10115 10113 10112 10110 10108 10106 10104 10101 10098 10095 10091 10088 10085 10082 10080 10080 10079 10078 10077 10076 10075 10073 10072 10071 10070 10068 10066 10064 10062 10060 10058 10056 10055 10053 10051 10050 10049 10048 10047 10046 10045 10043 10041 10040 10038 10036
10198 10195 10191 10188 10185 10183 10180 10177 10175 10173 10170 10168 10166 10164 10161 10159 10156 10154 10152 10150 10148 10146 10145 10143 10141 10139 10137 10135 10133 10131 10128 10126 10126 10125 10123 10121 10120 10117 10114 10111 10109 10107 10106 10103 10101 10100 10097 10095 10092 10090 10086 10083 10080 10076 10075 10074 10073 10073 10071 10070 10070 10068 10067 10066 10065 10063 10061 10058 10056 10055 10053 10051 10049 10047 10045 10044 10043 10042 10041 10040 10038 10036 10035 10033 10031 10029
10190 10187 10184 10181 10178 10175 10173 10170 10168 10166 10163 10161 10159 10157 10155 10152 10150 10147 10145 10143 10141 10139 10137 10135 10133 10132 10130 10129 10127 10125 10122 10120 10119 10118 10116 10115 10113 10111 10108 10105 10103 10101 10099 10097 10095 10093 10091 10088 10086 10083 10081 10078 10075 10072 10070 10069 10068 10067 10066 10065 10065 10063 10063 10061 10060 10058 10056 10054 10052 10050 10048 10046 10043 10041 10040 10038 10037 10036 10035 10033 10032 10030 10028 10026 10024 10022
10183 10180 10176 10173 10171 10168 10165 10163 10161 10159 10156 10154 10152 10150 10147 10145 10143 10140 10138 10136 10134 10132 10130 10128 10126 10125 10123 10122 10121 10119 10117 10115 10113 10111 10110 10108 10106 10105 10102 10099 10096 10095 10093 10091 10089 10087 10085 10083 10080 10078 10076 10073 10071 10068 10066 10065 10063 10063 10061 10060 10060 10058 10058 10056 10055 10054 10052 10050 10048 10045 10043 10041 10038 10036 10035 10033 10032 10031 10029 10028 10026 10024 10021 10019 10016 10015
10175 10172 10169 10166 10163 10161 10158 10156 10154 10152 10150 10148 10145 10143 10140 10138 10136 10134 10131 10130 10127 10125 10123 10121 10120 10118 10116 10116 10114 10113 10111 10110 10107 10105 10104 10102 10100 10098 10096 10093 10091 10088 10087 10085 10083 10082 10080 10078 10076 10073 10071 10068 10066 10064 10062 10061 10060 10058 10057 10056 10055 10053 10053 10051 10051 10049 10048 10045 10043 10041 10038 10036 10033 10031 10030 10028 10026 10025 10023 10021 10020 10017 10015 10013 10010 10008
10168 10165 10161 10158 10156 10154 10151 10150 10148 10145 10143 10141 10138 10136 10133 10131 10130 10127 10125 10123 10120 10118 10116 10115 10113 10111 10110 10109 10108 10106 10105 10104 10102 10100 10098 10096 10094 10092 10090 10087 10085 10083 10081 10080 10078 10076 10075 10073 10071 10069 10066 10064 10061 10060 10058 10056 10055 10055 10053 10051 10050 10048 10047 10046 10046 10045 10043 10041 10039 10036 10034 10031 10029 10026 10025 10023 10021 10020 10018 10016 10014 10011 10010 10007 10005 10002
10160 10157 10154 10151 10149 10147 10145 10143 10141 10139 10136 10134 10131 10130 10127 10125 10123 10121 10118 10116 10114 10112 10110 10109 10108 10106 10104 10103 10102 10101 10100 10098 10096 10095 10092 10090 10088 10086 10083 10081 10079 10076 10075 10073 10072 10071 10070 10068 10067 10065 10063 10061 10058 10055 10053 10051 10051 10050 10050 10048 10046 10044 10043 10041 10041 10040 10038 10036 10035 10032 10030 10026 10024 10021 10020 10018 10016 10015 10014 10012 10010 10007 10005 10003 10000 9998
10153 10150 10146 10144 10142 10140 10138 10136 10135 10133 10130 10128 10125 10123 10121 10119 10117 10115 10111 10110 10108 10106 10105 10103 10101 10100 10098 10097 10096 10095 10094 10092 10091 10089 10086 10084 10082 10080 10078 10075 10073 10071 10070 10068 10067 10066 10065 10064 10062 10061 10058 10056 10055 10052 10050 10048 10046 10046 10046 10045 10043 10040 10038 10037 10036 10035 10034 10032 10030 10028 10025 10022 10020 10017 10015 10013 10011 10011 10010 10008 10006 10003 10001 9998 9996 9994
10145 10142 10140 10137 10135 10133 10131 10130 10128 10126 10124 10121 10120 10117 10115 10113 10111 10108 10105 10103 10101 10100 10098 10097 10096 10094 10092 10091 10090 10089 10088 10086 10085 10083 10081 10078 10076 10074 10072 10070 10068 10066 10065 10063 10062 10061 10060 10059 10058 10056 10055 10053 10050 10048 10046 10044 10043 10042 10041 10041 10039 10037 10035 10033 10031 10031 10030 10028 10026 10023 10021 10018 10015 10013 10010 10008 10007 10006 10005 10003 10001 10000 9996 9994 9992 9990
10138 10135 10133 10130 10128 10126 10125 10123 10121 10119 10117 10115 10113 10111 10110 10107 10105 10102 10100 10097 10095 10094 10093 10091 10090 10088 10087 10085 10084 10083 10082 10081 10079 10077 10075 10073 10071 10069 10067 10065 10063 10061 10060 10059 10058 10056 10055 10055 10053 10052 10050 10048 10046 10044 10042 10040 10038 10038 10037 10036 10036 10034 10031 10030 10028 10026 10025 10023 10021 10020 10017 10014 10011 10008 10006 10004 10003 10001 10000 9999 9997 9995 9993 9990 9988 9985
10130 10128 10126 10124 10122 10120 10118 10116 10115 10113 10111 10109 10107 10105 10103 10101 10099 10096 10094 10092 10090 10088 10087 10086 10085 10083 10081 10080 10078 10077 10076 10075 10073 10071 10070 10068 10066 10064 10062 10060 10058 10057 10056 10055 10053 10052 10051 10050 10049 10047 10046 10044 10042 10040 10038 10036 10035 10033 10033 10032 10031 10030 10028 10026 10024 10022 10020 10018 10017 10015 10013 10010 10008 10005 10002 10000 9998 9997 9996 9995 9993 9991 9988 9986 9983 9981
10123 10121 10119 10117 10115 10113 10111 10110 10108 10106 10105 10103 10101 10099 10096 10095 10093 10091 10088 10086 10085 10083 10081 10081 10079 10078 10076 10074 10073 10071 10070 10069 10068 10066 10065 10063 10061 10059 10057 10056 10054 10053 10051 10050 10050 10048 10047 10046 10045 10043 10041 10040 10038 10036 10034 10032 10031 10030 10028 10027 10026 10026 10024 10023 10021 10019 10016 10015 10013 10011 10009 10006 10004 10001 9998 9996 9994 9993 9991 9990 9989 9986 9985 9982 9980 9977
10116 10114 10112 10110 10108 10107 10105 10103 10102 10100 10098 10096 10095 10093 10091 10089 10087 10085 10083 10081 10080 10078 10076 10075 10074 10072 10070 10069 10067 10066 10065 10063 10062 10061 10060 10058 10056 10055 10053 10051 10050 10048 10047 10046 10045 10044 10043 10042 10041 10039 10037 10035 10033 10031 10030 10028 10027 10026 10024 10023 10022 10021 10020 10018 10017 10015 10013 10011 10009 10007 10005 10003 10000 9998 9995 9992 9990 9988 9987 9986 9985 9983 9980 9978 9976 9973
10110 10108 10106 10104 10102 10100 10098 10097 10096 10095 10092 10090 10088 10086 10085 10083 10081 10079 10078 10076 10075 10073 10071 10070 10068 10066 10065 10063 10062 10060 10059 10058 10056 10055 10055 10053 10051 10050 10049 10047 10046 10045 10043 10042 10041 10040 10039 10038 10037 10036 10034 10031 10029 10027 10025 10024 10023 10022 10020 10020 10018 10016 10015 10013 10012 10011 10010 10008 10005 10003 10001 10000 9997 9994 9991 9988 9986 9984 9983 9982 9981 9979 9977 9975 9972 9970
10103 10101 10099 10098 10096 10094 10093 10091 10090 10088 10086 10084 10082 10080 10079 10077 10076 10074 10072 10070 10069 10068 10066 10064 10063 10061 10060 10058 10056 10055 10054 10052 10051 10050 10049 10048 10047 10046 10045 10043 10041 10040 10039 10038 10037 10036 10035 10035 10034 10033 10031 10029 10026 10023 10021 10020 10019 10018 10017 10016 10015 10013 10011 10009 10008 10007 10005 10004 10002 10000 9998 9996 9993 9991 9988 9985 9982 9980 9978 9978 9976 9975 9973 9970 9968 9965
10096 10095 10093 10091 10090 10088 10086 10085 10083 10082 10080 10078 10076 10075 10073 10071 10070 10069 10066 10065 10063 10062 10061 10059 10057 10056 10054 10053 10051 10050 10048 10047 10046 10045 10044 10043 10042 10041 10040 10038 10038 10036 10035 10034 10033 10032 10031 10031 10030 10030 10028 10026 10023 10021 10018 10016 10015 10014 10013 10012 10011 10009 10007 10005 10004 10003 10001 10000 9998 9996 9995 9993 9990 9988 9985 9982 9979 9976 9975 9973 9971 9970 9969 9966 9964 9961
10090 10088 10087 10085 10084 10082 10081 10079 10077 10076 10073 10072 10070 10069 10067 10066 10065 10063 10061 10060 10058 10057 10055 10054 10052 10051 10049 10048 10046 10045 10044 10043 10041 10040 10040 10038 10038 10036 10035 10034 10033 10032 10031 10030 10029 10028 10028 10027 10026 10026 10025 10024 10021 10018 10016 10013 10011 10010 10009 10008 10007 10005 10003 10001 10000 9998 9997 9996 9994 9993 9991 9989 9986 9985 9982 9979 9976 9973 9971 9969 9968 9966 9965 9962 9960 9956
10084 10082 10081 10080 10078 10076 10075 10073 10071 10070 10068 10066 10065 10063 10062 10061 10059 10058 10056 10055 10053 10051 10050 10048 10047 10046 10045 10043 10042 10041 10040 10038 10037 10036 10035 10034 10033 10032 10031 10030 10028 10028 10026 10025 10025 10024 10023 10023 10022 10021 10021 10021 10020 10017 10013 10011 10008 10006 10005 10004 10003 10001 10000 9998 9996 9995 9993 9992 9990 9988 9986 9985 9983 9981 9979 9976 9973 9970 9968 9965 9964 9962 9960 9958 9955 9952